Find Starlink 31879

NORAD ID: 59937 Int'l Des: 2024-106 Owner: SPXS Country: US Constellation: starlink operational
LEOCIRCULAR

Live Position

Loading 3D Globe...

About Starlink 31879

Description loading...

Upcoming Passes

Passes for default location (London). Set your location on the main map for personalized predictions.

Altitude History

Loading altitude history...

Two-Line Element Set

1 59937U 24106R 26124.04539499 .00001008 00000-0 46150-4 0 9993
2 59937 43.0051 20.3385 0001230 282.7441 77.3273 15.27591726109030
Epoch: May 4, 2026 • Age: 27 hours

Current Status

Altitude 483.7 km
Velocity 7.62 km/s
Sub-Earth Point -4.69°S, 92.89°W
Launch Date Jun 1, 2024
Age 1.9 years
Type internet

Technical Details

Classification Payload
Mass 730.00 kg
Dry Mass 700.00 kg
Total Mass 730.00 kg
Length 0.30 m
Diameter 4.10 m
Span 29.00 m
Shape Box + pan
Manufacturer SPXS
Bus Type Starlink V2M
Phase Status In Orbit
Owner/State SPXS/US

Most Searched